Location: Austin
(30.3000°N, 97.7500°W)
Time: 23:13:42
(UTC-05:00)

Okean 2 Rocket - Pass Details

Date: 06 May 2026
Orbit: 612 x 633 km, 82.5° (Epoch: 13 May)

Event Time Altitude Azimuth Distance (km) Brightness Sun altitude
Exits shadow 21:32:08 29° 131° (SE) 1,141 3.8 -16.4°
Maximum altitude 21:33:33 38° 91° (E) 967 3.6 -16.6°
Drops below altitude 10° 21:37:41 10° 24° (NNE) 2,014 5.8 -17.4°
Sets 21:40:02 0° 16° (NNE) 2,927 6.7 -17.8°
